Location: Omaha
(41.2590°N, 95.9380°W)
Time: 06:35:34
(UTC-05:00)

ISS - Pass Details

Date: 09 October 2017
Orbit: 401 x 408 km, 51.6° (Epoch: 18 October)

Event Time Altitude Azimuth Distance (km) Brightness Sun altitude
Rises 21:07:19 0° 308° (NW) 2,327 1.1 -26.1°
Reaches altitude 10° 21:09:26 10° 312° (NW) 1,466 -0.2 -26.5°
Enters shadow 21:10:34 19° 318° (NW) 1,025 -1.2 -26.7°
